Year,Month,Day,Hour,Minute,Value (Times are PST for temperature in C)
2015,07,14,00,00,16.00
2015,07,14,00,01,15.90
2015,07,14,00,03,15.90
2015,07,14,00,04,15.90
2015,07,14,00,05,15.90
2015,07,14,00,06,15.90
2015,07,14,00,07,15.90
2015,07,14,00,08,15.90
2015,07,14,00,09,15.90
2015,07,14,00,10,15.90
2015,07,14,00,11,15.90
2015,07,14,00,12,15.80
2015,07,14,00,13,15.80
2015,07,14,00,14,15.80
2015,07,14,00,15,15.80
2015,07,14,00,16,15.80
2015,07,14,00,17,15.80
2015,07,14,00,18,15.80
2015,07,14,00,19,15.80
2015,07,14,00,20,15.80
2015,07,14,00,21,15.70
2015,07,14,00,22,15.70
2015,07,14,00,23,15.70
2015,07,14,00,24,15.70
2015,07,14,00,25,15.70
2015,07,14,00,26,15.70
2015,07,14,00,27,15.70
2015,07,14,00,28,15.70
2015,07,14,00,29,15.70
2015,07,14,00,30,15.70
2015,07,14,00,31,15.60
2015,07,14,00,32,15.60
2015,07,14,00,33,15.60
2015,07,14,00,34,15.60
2015,07,14,00,35,15.60
2015,07,14,00,36,15.60
2015,07,14,00,37,15.60
2015,07,14,00,38,15.60
2015,07,14,00,39,15.60
2015,07,14,00,40,15.60
2015,07,14,00,41,15.60
2015,07,14,00,42,15.60
2015,07,14,00,43,15.60
2015,07,14,00,44,15.50
2015,07,14,00,45,15.50
2015,07,14,00,46,15.50
2015,07,14,00,47,15.50
2015,07,14,00,48,15.50
2015,07,14,00,49,15.40
2015,07,14,00,50,15.40
2015,07,14,00,51,15.40
2015,07,14,00,52,15.40
2015,07,14,00,53,15.40
2015,07,14,00,54,15.40
2015,07,14,00,55,15.40
2015,07,14,00,56,15.40
2015,07,14,00,57,15.40
2015,07,14,00,58,15.30
2015,07,14,00,59,15.30
2015,07,14,01,00,15.30
2015,07,14,01,01,15.30
2015,07,14,01,02,15.30
2015,07,14,01,03,15.30
2015,07,14,01,04,15.30
2015,07,14,01,05,15.30
2015,07,14,01,06,15.30
2015,07,14,01,07,15.20
2015,07,14,01,08,15.20
2015,07,14,01,09,15.20
2015,07,14,01,10,15.20
2015,07,14,01,11,15.20
2015,07,14,01,12,15.10
2015,07,14,01,13,15.10
2015,07,14,01,14,15.10
2015,07,14,01,15,15.10
2015,07,14,01,16,15.10
2015,07,14,01,17,15.00
2015,07,14,01,18,15.00
2015,07,14,01,19,14.90
2015,07,14,01,20,14.90
2015,07,14,01,21,14.90
2015,07,14,01,22,14.90
2015,07,14,01,23,14.80
2015,07,14,01,24,14.80
2015,07,14,01,26,14.80
2015,07,14,01,27,14.80
2015,07,14,01,28,14.70
2015,07,14,01,29,14.70
2015,07,14,01,30,14.70
2015,07,14,01,31,14.70
2015,07,14,01,32,14.70
2015,07,14,01,33,14.70
2015,07,14,01,34,14.70
2015,07,14,01,35,14.60
2015,07,14,01,36,14.60
2015,07,14,01,37,14.60
2015,07,14,01,38,14.60
2015,07,14,01,39,14.60
2015,07,14,01,40,14.60
2015,07,14,01,41,14.60
2015,07,14,01,42,14.60
2015,07,14,01,43,14.60
2015,07,14,01,44,14.60
2015,07,14,01,45,14.60
2015,07,14,01,46,14.60
2015,07,14,01,47,14.60
2015,07,14,01,48,14.50
2015,07,14,01,49,14.50
2015,07,14,01,50,14.50
2015,07,14,01,51,14.50
2015,07,14,01,52,14.50
2015,07,14,01,53,14.50
2015,07,14,01,54,14.50
2015,07,14,01,55,14.50
2015,07,14,01,56,14.50
2015,07,14,01,57,14.50
2015,07,14,01,58,14.50
2015,07,14,01,59,14.40
2015,07,14,02,00,14.40
2015,07,14,02,01,14.40
2015,07,14,02,02,14.40
2015,07,14,02,03,14.40
2015,07,14,02,04,14.40
2015,07,14,02,05,14.40
2015,07,14,02,06,14.40
2015,07,14,02,07,14.40
2015,07,14,02,08,14.40
2015,07,14,02,09,14.40
2015,07,14,02,10,14.40
2015,07,14,02,11,14.40
2015,07,14,02,12,14.30
2015,07,14,02,13,14.40
2015,07,14,02,14,14.30
2015,07,14,02,15,14.30
2015,07,14,02,16,14.30
2015,07,14,02,17,14.30
2015,07,14,02,18,14.30
2015,07,14,02,19,14.30
2015,07,14,02,20,14.30
2015,07,14,02,21,14.30
2015,07,14,02,22,14.30
2015,07,14,02,23,14.30
2015,07,14,02,24,14.30
2015,07,14,02,25,14.20
2015,07,14,02,26,14.20
2015,07,14,02,27,14.20
2015,07,14,02,28,14.20
2015,07,14,02,29,14.20
2015,07,14,02,30,14.10
2015,07,14,02,31,14.10
2015,07,14,02,32,14.10
2015,07,14,02,33,14.10
2015,07,14,02,34,14.00
2015,07,14,02,35,13.90
2015,07,14,02,36,13.90
2015,07,14,02,37,13.90
2015,07,14,02,38,13.90
2015,07,14,02,39,13.90
2015,07,14,02,40,13.80
2015,07,14,02,41,13.90
2015,07,14,02,42,13.90
2015,07,14,02,43,13.90
2015,07,14,02,44,13.90
2015,07,14,02,45,13.90
2015,07,14,02,46,13.90
2015,07,14,02,47,13.90
2015,07,14,02,48,13.80
2015,07,14,02,49,13.80
2015,07,14,02,50,13.80
2015,07,14,02,51,13.80
2015,07,14,02,52,13.80
2015,07,14,02,53,13.80
2015,07,14,02,54,13.80
2015,07,14,02,55,13.80
2015,07,14,02,56,13.70
2015,07,14,02,57,13.70
2015,07,14,02,58,13.70
2015,07,14,02,59,13.70
2015,07,14,03,00,13.70
2015,07,14,03,01,13.60
2015,07,14,03,02,13.60
2015,07,14,03,03,13.60
2015,07,14,03,04,13.60
2015,07,14,03,05,13.50
2015,07,14,03,06,13.50
2015,07,14,03,07,13.50
2015,07,14,03,08,13.50
2015,07,14,03,09,13.40
2015,07,14,03,10,13.40
2015,07,14,03,11,13.40
2015,07,14,03,12,13.40
2015,07,14,03,13,13.40
2015,07,14,03,14,13.40
2015,07,14,03,15,13.40
2015,07,14,03,16,13.40
2015,07,14,03,17,13.30
2015,07,14,03,18,13.30
2015,07,14,03,19,13.30
2015,07,14,03,20,13.30
2015,07,14,03,21,13.30
2015,07,14,03,22,13.30
2015,07,14,03,23,13.30
2015,07,14,03,24,13.30
2015,07,14,03,25,13.30
2015,07,14,03,26,13.30
2015,07,14,03,27,13.30
2015,07,14,03,28,13.30
2015,07,14,03,29,13.30
2015,07,14,03,30,13.30
2015,07,14,03,31,13.30
2015,07,14,03,32,13.30
2015,07,14,03,33,13.30
2015,07,14,03,34,13.30
2015,07,14,03,35,13.20
2015,07,14,03,36,13.20
2015,07,14,03,37,13.20
2015,07,14,03,38,13.20
2015,07,14,03,39,13.20
2015,07,14,03,40,13.20
2015,07,14,03,41,13.20
2015,07,14,03,42,13.20
2015,07,14,03,43,13.20
2015,07,14,03,44,13.20
2015,07,14,03,45,13.20
2015,07,14,03,46,13.20
2015,07,14,03,47,13.20
2015,07,14,03,48,13.20
2015,07,14,03,49,13.10
2015,07,14,03,50,13.10
2015,07,14,03,51,13.10
2015,07,14,03,52,13.10
2015,07,14,03,53,13.10
2015,07,14,03,54,13.10
2015,07,14,03,55,13.10
2015,07,14,03,56,13.10
2015,07,14,03,57,13.10
2015,07,14,03,58,13.10
2015,07,14,03,59,13.10
2015,07,14,04,00,13.00
2015,07,14,04,01,13.00
2015,07,14,04,02,13.00
2015,07,14,04,03,13.00
2015,07,14,04,04,13.00
2015,07,14,04,05,12.90
2015,07,14,04,06,12.90
2015,07,14,04,07,12.90
2015,07,14,04,08,12.90
2015,07,14,04,09,12.90
2015,07,14,04,10,12.90
2015,07,14,04,11,12.90
2015,07,14,04,12,12.90
2015,07,14,04,13,12.90
2015,07,14,04,14,12.90
2015,07,14,04,15,12.90
2015,07,14,04,16,12.90
2015,07,14,04,17,12.90
2015,07,14,04,18,12.80
2015,07,14,04,19,12.80
2015,07,14,04,20,12.80
2015,07,14,04,21,12.80
2015,07,14,04,22,12.80
2015,07,14,04,23,12.80
2015,07,14,04,24,12.80
2015,07,14,04,25,12.80
2015,07,14,04,26,12.80
2015,07,14,04,27,12.70
2015,07,14,04,28,12.70
2015,07,14,04,29,12.70
2015,07,14,04,30,12.70
2015,07,14,04,31,12.70
2015,07,14,04,32,12.70
2015,07,14,04,33,12.70
2015,07,14,04,34,12.70
2015,07,14,04,35,12.70
2015,07,14,04,36,12.70
2015,07,14,04,37,12.70
2015,07,14,04,38,12.70
2015,07,14,04,39,12.70
2015,07,14,04,40,12.70
2015,07,14,04,41,12.70
2015,07,14,04,42,12.70
2015,07,14,04,43,12.70
2015,07,14,04,44,12.70
2015,07,14,04,45,12.70
2015,07,14,04,46,12.70
2015,07,14,04,47,12.70
2015,07,14,04,48,12.70
2015,07,14,04,49,12.70
2015,07,14,04,50,12.70
2015,07,14,04,51,12.60
2015,07,14,04,52,12.60
2015,07,14,04,53,12.60
2015,07,14,04,54,12.60
2015,07,14,04,55,12.60
2015,07,14,04,56,12.60
2015,07,14,04,57,12.60
2015,07,14,04,58,12.60
2015,07,14,04,59,12.60
2015,07,14,05,00,12.60
2015,07,14,05,01,12.60
2015,07,14,05,02,12.60
2015,07,14,05,03,12.60
2015,07,14,05,04,12.60
2015,07,14,05,05,12.50
2015,07,14,05,06,12.50
2015,07,14,05,07,12.50
2015,07,14,05,08,12.50
2015,07,14,05,09,12.50
2015,07,14,05,10,12.50
2015,07,14,05,11,12.50
2015,07,14,05,12,12.40
2015,07,14,05,13,12.40
2015,07,14,05,14,12.40
2015,07,14,05,15,12.40
2015,07,14,05,16,12.40
2015,07,14,05,17,12.40
2015,07,14,05,18,12.40
2015,07,14,05,19,12.40
2015,07,14,05,20,12.40
2015,07,14,05,21,12.40
2015,07,14,05,22,12.40
2015,07,14,05,23,12.40
2015,07,14,05,24,12.40
2015,07,14,05,25,12.40
2015,07,14,05,26,12.40
2015,07,14,05,27,12.40
2015,07,14,05,28,12.40
2015,07,14,05,29,12.40
2015,07,14,05,30,12.40
2015,07,14,05,31,12.30
2015,07,14,05,32,12.30
2015,07,14,05,33,12.30
2015,07,14,05,34,12.30
2015,07,14,05,35,12.30
2015,07,14,05,36,12.30
2015,07,14,05,37,12.30
2015,07,14,05,38,12.30
2015,07,14,05,39,12.30
2015,07,14,05,40,12.30
2015,07,14,05,41,12.30
2015,07,14,05,42,12.30
2015,07,14,05,43,12.30
2015,07,14,05,44,12.30
2015,07,14,05,45,12.30
2015,07,14,05,46,12.30
2015,07,14,05,47,12.30
2015,07,14,05,48,12.30
2015,07,14,05,49,12.30
2015,07,14,05,50,12.30
2015,07,14,05,51,12.30
2015,07,14,05,52,12.40
2015,07,14,05,53,12.40
2015,07,14,05,54,12.40
2015,07,14,05,55,12.40
2015,07,14,05,56,12.40
2015,07,14,05,57,12.40
2015,07,14,05,58,12.40
2015,07,14,05,59,12.40
2015,07,14,06,00,12.40
2015,07,14,06,01,12.40
2015,07,14,06,02,12.40
2015,07,14,06,03,12.40
2015,07,14,06,04,12.40
2015,07,14,06,05,12.40
2015,07,14,06,06,12.40
2015,07,14,06,07,12.50
2015,07,14,06,08,12.50
2015,07,14,06,09,12.50
2015,07,14,06,10,12.50
2015,07,14,06,11,12.50
2015,07,14,06,12,12.50
2015,07,14,06,13,12.50
2015,07,14,06,14,12.60
2015,07,14,06,15,12.60
2015,07,14,06,16,12.60
2015,07,14,06,17,12.60
2015,07,14,06,18,12.60
2015,07,14,06,19,12.60
2015,07,14,06,20,12.60
2015,07,14,06,21,12.60
2015,07,14,06,22,12.60
2015,07,14,06,23,12.70
2015,07,14,06,24,12.70
2015,07,14,06,25,12.70
2015,07,14,06,26,12.70
2015,07,14,06,27,12.70
2015,07,14,06,28,12.70
2015,07,14,06,29,12.70
2015,07,14,06,30,12.70
2015,07,14,06,31,12.80
2015,07,14,06,32,12.80
2015,07,14,06,33,12.80
2015,07,14,06,34,12.80
2015,07,14,06,35,12.90
2015,07,14,06,36,12.90
2015,07,14,06,37,12.90
2015,07,14,06,38,12.90
2015,07,14,06,39,13.00
2015,07,14,06,40,13.00
2015,07,14,06,41,13.10
2015,07,14,06,42,13.10
2015,07,14,06,43,13.10
2015,07,14,06,44,13.10
2015,07,14,06,45,13.10
2015,07,14,06,46,13.20
2015,07,14,06,47,13.20
2015,07,14,06,48,13.20
2015,07,14,06,49,13.20
2015,07,14,06,50,13.20
2015,07,14,06,51,13.30
2015,07,14,06,52,13.30
2015,07,14,06,53,13.30
2015,07,14,06,54,13.30
2015,07,14,06,55,13.40
2015,07,14,06,56,13.40
2015,07,14,06,57,13.40
2015,07,14,06,58,13.40
2015,07,14,06,59,13.40
2015,07,14,07,00,13.50
2015,07,14,07,01,13.50
2015,07,14,07,02,13.60
2015,07,14,07,03,13.60
2015,07,14,07,04,13.60
2015,07,14,07,05,13.60
2015,07,14,07,06,13.60
2015,07,14,07,07,13.60
2015,07,14,07,08,13.60
2015,07,14,07,09,13.70
2015,07,14,07,10,13.70
2015,07,14,07,11,13.70
2015,07,14,07,12,13.70
2015,07,14,07,13,13.70
2015,07,14,07,14,13.70
2015,07,14,07,15,13.70
2015,07,14,07,16,13.70
2015,07,14,07,17,13.80
2015,07,14,07,18,13.80
2015,07,14,07,19,13.80
2015,07,14,07,20,13.80
2015,07,14,07,21,13.80
2015,07,14,07,22,13.80
2015,07,14,07,23,13.90
2015,07,14,07,24,13.90
2015,07,14,07,25,13.90
2015,07,14,07,26,13.90
2015,07,14,07,27,13.90
2015,07,14,07,28,13.90
2015,07,14,07,29,14.00
2015,07,14,07,30,14.00
2015,07,14,07,31,14.10
2015,07,14,07,32,14.10
2015,07,14,07,33,14.10
2015,07,14,07,34,14.10
2015,07,14,07,35,14.10
2015,07,14,07,36,14.20
2015,07,14,07,37,14.20
2015,07,14,07,38,14.20
2015,07,14,07,39,14.20
2015,07,14,07,40,14.20
2015,07,14,07,41,14.30
2015,07,14,07,42,14.30
2015,07,14,07,43,14.30
2015,07,14,07,44,14.40
2015,07,14,07,45,14.40
2015,07,14,07,46,14.40
2015,07,14,07,47,14.40
2015,07,14,07,48,14.50
2015,07,14,07,49,14.60
2015,07,14,07,50,14.60
2015,07,14,07,51,14.60
2015,07,14,07,52,14.60
2015,07,14,07,53,14.60
2015,07,14,07,54,14.70
2015,07,14,07,55,14.70
2015,07,14,07,56,14.70
2015,07,14,07,57,14.70
2015,07,14,07,58,14.70
2015,07,14,07,59,14.70
2015,07,14,08,00,14.70
2015,07,14,08,01,14.70
2015,07,14,08,02,14.70
2015,07,14,08,03,14.70
2015,07,14,08,04,14.70
2015,07,14,08,05,14.70
2015,07,14,08,06,14.70
2015,07,14,08,07,14.80
2015,07,14,08,08,14.80
2015,07,14,08,09,14.80
2015,07,14,08,10,14.80
2015,07,14,08,11,14.90
2015,07,14,08,12,14.90
2015,07,14,08,13,14.90
2015,07,14,08,14,15.00
2015,07,14,08,15,15.10
2015,07,14,08,16,15.10
2015,07,14,08,17,15.10
2015,07,14,08,18,15.20
2015,07,14,08,19,15.20
2015,07,14,08,20,15.20
2015,07,14,08,21,15.20
2015,07,14,08,22,15.30
2015,07,14,08,23,15.30
2015,07,14,08,24,15.30
2015,07,14,08,25,15.30
2015,07,14,08,26,15.30
2015,07,14,08,27,15.40
2015,07,14,08,28,15.40
2015,07,14,08,29,15.50
2015,07,14,08,30,15.50
2015,07,14,08,31,15.50
2015,07,14,08,32,15.60
2015,07,14,08,33,15.60
2015,07,14,08,34,15.60
2015,07,14,08,35,15.70
2015,07,14,08,36,15.80
2015,07,14,08,37,15.80
2015,07,14,08,38,15.90
2015,07,14,08,39,16.00
2015,07,14,08,40,16.10
2015,07,14,08,41,16.20
2015,07,14,08,42,16.20
2015,07,14,08,43,16.20
2015,07,14,08,44,16.30
2015,07,14,08,45,16.30
2015,07,14,08,46,16.40
2015,07,14,08,47,16.40
2015,07,14,08,48,16.60
2015,07,14,08,49,16.60
2015,07,14,08,50,16.70
2015,07,14,08,51,16.80
2015,07,14,08,52,16.80
2015,07,14,08,53,16.90
2015,07,14,08,54,17.00
2015,07,14,08,55,17.10
2015,07,14,08,56,17.10
2015,07,14,08,57,17.20
2015,07,14,08,58,17.30
2015,07,14,08,59,17.30
2015,07,14,09,00,17.40
2015,07,14,09,01,17.60
2015,07,14,09,02,17.60
2015,07,14,09,03,17.70
2015,07,14,09,04,17.80
2015,07,14,09,05,17.80
2015,07,14,09,06,17.90
2015,07,14,09,07,17.90
2015,07,14,09,08,17.90
2015,07,14,09,09,18.00
2015,07,14,09,10,18.00
2015,07,14,09,11,18.10
2015,07,14,09,12,18.10
2015,07,14,09,13,18.20
2015,07,14,09,14,18.20
2015,07,14,09,15,18.20
2015,07,14,09,16,18.30
2015,07,14,09,17,18.30
2015,07,14,09,18,18.30
2015,07,14,09,19,18.40
2015,07,14,09,20,18.40
2015,07,14,09,21,18.40
2015,07,14,09,22,18.50
2015,07,14,09,23,18.50
2015,07,14,09,24,18.40
2015,07,14,09,25,18.40
2015,07,14,09,26,18.40
2015,07,14,09,27,18.40
2015,07,14,09,28,18.30
2015,07,14,09,29,18.30
2015,07,14,09,30,18.20
2015,07,14,09,31,18.20
2015,07,14,09,32,18.20
2015,07,14,09,33,18.10
2015,07,14,09,34,18.10
2015,07,14,09,35,18.10
2015,07,14,09,36,18.20
2015,07,14,09,37,18.20
2015,07,14,09,38,18.20
2015,07,14,09,39,18.30
2015,07,14,09,40,18.30
2015,07,14,09,41,18.30
2015,07,14,09,42,18.30
2015,07,14,09,43,18.30
2015,07,14,09,44,18.30
2015,07,14,09,45,18.30
2015,07,14,09,46,18.30
2015,07,14,09,47,18.30
2015,07,14,09,48,18.30
2015,07,14,09,49,18.30
2015,07,14,09,50,18.40
2015,07,14,09,51,18.50
2015,07,14,09,52,18.60
2015,07,14,09,53,18.70
2015,07,14,09,54,18.90
2015,07,14,09,55,19.10
2015,07,14,09,56,19.20
2015,07,14,09,57,19.30
2015,07,14,09,58,19.40
2015,07,14,09,59,19.40
2015,07,14,10,00,19.50
2015,07,14,10,01,19.60
2015,07,14,10,02,19.60
2015,07,14,10,03,19.60
2015,07,14,10,04,19.70
2015,07,14,10,05,19.70
2015,07,14,10,06,19.70
2015,07,14,10,07,19.80
2015,07,14,10,08,19.80
2015,07,14,10,09,19.80
2015,07,14,10,10,19.70
2015,07,14,10,11,19.70
2015,07,14,10,12,19.80
2015,07,14,10,13,19.80
2015,07,14,10,14,19.80
2015,07,14,10,15,19.90
2015,07,14,10,16,19.90
2015,07,14,10,17,20.00
2015,07,14,10,18,20.10
2015,07,14,10,19,20.00
2015,07,14,10,20,19.90
2015,07,14,10,21,19.80
2015,07,14,10,22,19.80
2015,07,14,10,23,19.70
2015,07,14,10,24,19.70
2015,07,14,10,25,19.80
2015,07,14,10,26,19.90
2015,07,14,10,27,20.00
2015,07,14,10,28,20.10
2015,07,14,10,29,20.20
2015,07,14,10,30,20.20
2015,07,14,10,31,20.20
2015,07,14,10,32,20.30
2015,07,14,10,33,20.30
2015,07,14,10,34,20.40
2015,07,14,10,35,20.40
2015,07,14,10,36,20.40
2015,07,14,10,37,20.40
2015,07,14,10,38,20.50
2015,07,14,10,39,20.50
2015,07,14,10,40,20.40
2015,07,14,10,41,20.40
2015,07,14,10,42,20.40
2015,07,14,10,43,20.40
2015,07,14,10,44,20.50
2015,07,14,10,45,20.50
2015,07,14,10,46,20.60
2015,07,14,10,47,20.70
2015,07,14,10,48,20.80
2015,07,14,10,49,20.80
2015,07,14,10,50,20.90
2015,07,14,10,51,21.00
2015,07,14,10,52,21.10
2015,07,14,10,53,21.10
2015,07,14,10,54,21.20
2015,07,14,10,55,21.20
2015,07,14,10,56,21.30
2015,07,14,10,57,21.30
2015,07,14,10,58,21.30
2015,07,14,10,59,21.30
2015,07,14,11,00,21.40
2015,07,14,11,01,21.40
2015,07,14,11,02,21.40
2015,07,14,11,03,21.40
2015,07,14,11,04,21.50
2015,07,14,11,05,21.60
2015,07,14,11,06,21.60
2015,07,14,11,07,21.70
2015,07,14,11,08,21.70
2015,07,14,11,09,21.80
2015,07,14,11,10,21.80
2015,07,14,11,11,21.80
2015,07,14,11,12,21.80
2015,07,14,11,13,21.80
2015,07,14,11,14,21.70
2015,07,14,11,15,21.80
2015,07,14,11,16,21.80
2015,07,14,11,17,21.80
2015,07,14,11,18,21.80
2015,07,14,11,19,21.80
2015,07,14,11,20,21.80
2015,07,14,11,21,21.80
2015,07,14,11,22,21.80
2015,07,14,11,23,21.90
2015,07,14,11,25,22.00
2015,07,14,11,26,22.10
2015,07,14,11,27,22.20
2015,07,14,11,28,22.20
2015,07,14,11,29,22.30
2015,07,14,11,30,22.40
2015,07,14,11,31,22.50
2015,07,14,11,32,22.60
2015,07,14,11,33,22.70
2015,07,14,11,34,22.70
2015,07,14,11,35,22.70
2015,07,14,11,36,22.80
2015,07,14,11,37,22.80
2015,07,14,11,38,22.90
2015,07,14,11,39,22.90
2015,07,14,11,40,23.00
2015,07,14,11,41,23.10
2015,07,14,11,42,23.10
2015,07,14,11,43,23.20
2015,07,14,11,44,23.30
2015,07,14,11,45,23.40
2015,07,14,11,46,23.60
2015,07,14,11,47,23.60
2015,07,14,11,48,23.60
2015,07,14,11,49,23.70
2015,07,14,11,50,23.80
2015,07,14,11,51,23.90
2015,07,14,11,52,24.00
2015,07,14,11,53,24.10
2015,07,14,11,54,24.20
2015,07,14,11,55,24.30
2015,07,14,11,56,24.40
2015,07,14,11,57,24.40
2015,07,14,11,58,24.40
2015,07,14,11,59,24.60
2015,07,14,12,00,24.60
2015,07,14,12,01,24.70
2015,07,14,12,02,24.80
2015,07,14,12,03,24.90
2015,07,14,12,04,24.90
2015,07,14,12,05,25.10
2015,07,14,12,06,25.10
2015,07,14,12,07,25.20
2015,07,14,12,08,25.20
2015,07,14,12,09,25.10
2015,07,14,12,10,25.00
2015,07,14,12,11,24.90
2015,07,14,12,13,24.90
2015,07,14,12,14,24.90
2015,07,14,12,15,24.90
2015,07,14,12,16,24.90
2015,07,14,12,17,24.90
2015,07,14,12,18,24.90
2015,07,14,12,19,24.90
2015,07,14,12,20,24.90
2015,07,14,12,21,24.90
2015,07,14,12,22,24.90
2015,07,14,12,23,25.10
2015,07,14,12,24,25.10
2015,07,14,12,25,25.10
2015,07,14,12,26,25.10
2015,07,14,12,27,25.10
2015,07,14,12,28,25.20
2015,07,14,12,29,25.30
2015,07,14,12,30,25.30
2015,07,14,12,31,25.30
2015,07,14,12,32,25.30
2015,07,14,12,33,25.30
2015,07,14,12,34,25.30
2015,07,14,12,35,25.20
2015,07,14,12,36,25.20
2015,07,14,12,37,25.20
2015,07,14,12,38,25.20
2015,07,14,12,39,25.30
2015,07,14,12,40,25.30
2015,07,14,12,41,25.30
2015,07,14,12,42,25.30
2015,07,14,12,43,25.40
2015,07,14,12,44,25.40
2015,07,14,12,45,25.50
2015,07,14,12,46,25.50
2015,07,14,12,47,25.40
2015,07,14,12,48,25.30
2015,07,14,12,49,25.30
2015,07,14,12,50,25.20
2015,07,14,12,51,25.20
2015,07,14,12,52,25.20
2015,07,14,12,53,25.30
2015,07,14,12,54,25.30
2015,07,14,12,55,25.40
2015,07,14,12,56,25.50
2015,07,14,12,57,25.60
2015,07,14,12,58,25.60
2015,07,14,12,59,25.60
2015,07,14,13,00,25.60
2015,07,14,13,01,25.70
2015,07,14,13,02,25.70
2015,07,14,13,03,25.70
2015,07,14,13,04,25.60
2015,07,14,13,05,25.60
2015,07,14,13,06,25.60
2015,07,14,13,07,25.70
2015,07,14,13,08,25.70
2015,07,14,13,09,25.60
2015,07,14,13,10,25.70
2015,07,14,13,11,25.70
2015,07,14,13,12,25.70
2015,07,14,13,13,25.80
2015,07,14,13,14,25.80
2015,07,14,13,15,25.90
2015,07,14,13,16,25.90
2015,07,14,13,17,25.90
2015,07,14,13,18,25.90
2015,07,14,13,19,25.90
2015,07,14,13,20,25.80
2015,07,14,13,21,25.90
2015,07,14,13,22,25.90
2015,07,14,13,23,25.80
2015,07,14,13,24,25.80
2015,07,14,13,25,25.80
2015,07,14,13,26,25.90
2015,07,14,13,27,25.90
2015,07,14,13,28,25.90
2015,07,14,13,29,25.80
2015,07,14,13,30,25.90
2015,07,14,13,31,25.90
2015,07,14,13,32,25.90
2015,07,14,13,33,25.90
2015,07,14,13,34,25.90
2015,07,14,13,35,25.90
2015,07,14,13,36,25.90
2015,07,14,13,37,26.00
2015,07,14,13,38,26.00
2015,07,14,13,39,25.90
2015,07,14,13,40,25.90
2015,07,14,13,41,25.80
2015,07,14,13,42,25.80
2015,07,14,13,43,25.80
2015,07,14,13,44,25.90
2015,07,14,13,45,25.90
2015,07,14,13,46,25.90
2015,07,14,13,47,25.90
2015,07,14,13,48,25.90
2015,07,14,13,49,25.90
2015,07,14,13,50,25.90
2015,07,14,13,52,26.00
2015,07,14,13,53,26.10
2015,07,14,13,54,26.10
2015,07,14,13,55,26.10
2015,07,14,13,56,26.10
2015,07,14,13,57,26.10
2015,07,14,13,58,26.10
2015,07,14,13,59,26.10
2015,07,14,14,00,26.20
2015,07,14,14,01,26.20
2015,07,14,14,02,26.30
2015,07,14,14,03,26.30
2015,07,14,14,04,26.30
2015,07,14,14,05,26.30
2015,07,14,14,06,26.30
2015,07,14,14,07,26.40
2015,07,14,14,08,26.30
2015,07,14,14,09,26.30
2015,07,14,14,10,26.30
2015,07,14,14,11,26.40
2015,07,14,14,12,26.40
2015,07,14,14,13,26.50
2015,07,14,14,14,26.50
2015,07,14,14,15,26.60
2015,07,14,14,16,26.60
2015,07,14,14,17,26.60
2015,07,14,14,18,26.50
2015,07,14,14,19,26.50
2015,07,14,14,20,26.50
2015,07,14,14,21,26.60
2015,07,14,14,22,26.60
2015,07,14,14,23,26.60
2015,07,14,14,24,26.60
2015,07,14,14,25,26.60
2015,07,14,14,26,26.40
2015,07,14,14,27,26.40
2015,07,14,14,28,26.30
2015,07,14,14,29,26.30
2015,07,14,14,30,26.30
2015,07,14,14,31,26.20
2015,07,14,14,32,26.20
2015,07,14,14,33,26.20
2015,07,14,14,34,26.20
2015,07,14,14,35,26.20
2015,07,14,14,36,26.20
2015,07,14,14,37,26.30
2015,07,14,14,38,26.30
2015,07,14,14,39,26.40
2015,07,14,14,40,26.40
2015,07,14,14,41,26.40
2015,07,14,14,42,26.50
2015,07,14,14,43,26.50
2015,07,14,14,44,26.40
2015,07,14,14,45,26.30
2015,07,14,14,46,26.30
2015,07,14,14,47,26.30
2015,07,14,14,48,26.30
2015,07,14,14,49,26.30
2015,07,14,14,50,26.30
2015,07,14,14,51,26.30
2015,07,14,14,52,26.30
2015,07,14,14,53,26.40
2015,07,14,14,54,26.40
2015,07,14,14,55,26.60
2015,07,14,14,56,26.60
2015,07,14,14,57,26.60
2015,07,14,14,58,26.60
2015,07,14,14,59,26.60
2015,07,14,15,00,26.60
2015,07,14,15,01,26.70
2015,07,14,15,02,26.70
2015,07,14,15,03,26.60
2015,07,14,15,04,26.50
2015,07,14,15,05,26.40
2015,07,14,15,06,26.40
2015,07,14,15,07,26.50
2015,07,14,15,08,26.60
2015,07,14,15,09,26.70
2015,07,14,15,10,26.70
2015,07,14,15,11,26.60
2015,07,14,15,12,26.60
2015,07,14,15,13,26.60
2015,07,14,15,14,26.60
2015,07,14,15,15,26.50
2015,07,14,15,16,26.40
2015,07,14,15,17,26.40
2015,07,14,15,18,26.40
2015,07,14,15,19,26.30
2015,07,14,15,20,26.30
2015,07,14,15,21,26.30
2015,07,14,15,22,26.30
2015,07,14,15,23,26.30
2015,07,14,15,24,26.30
2015,07,14,15,25,26.30
2015,07,14,15,26,26.30
2015,07,14,15,27,26.20
2015,07,14,15,28,26.20
2015,07,14,15,29,26.20
2015,07,14,15,30,26.20
2015,07,14,15,31,26.20
2015,07,14,15,32,26.10
2015,07,14,15,33,26.10
2015,07,14,15,34,26.00
2015,07,14,15,35,25.90
2015,07,14,15,37,25.90
2015,07,14,15,38,25.90
2015,07,14,15,39,25.90
2015,07,14,15,40,25.80
2015,07,14,15,41,25.80
2015,07,14,15,42,25.80
2015,07,14,15,43,25.80
2015,07,14,15,44,25.90
2015,07,14,15,45,25.90
2015,07,14,15,46,26.10
2015,07,14,15,47,26.10
2015,07,14,15,48,26.10
2015,07,14,15,49,26.20
2015,07,14,15,50,26.20
2015,07,14,15,51,26.30
2015,07,14,15,52,26.40
2015,07,14,15,53,26.50
2015,07,14,15,54,26.40
2015,07,14,15,55,26.40
2015,07,14,15,56,26.40
2015,07,14,15,57,26.40
2015,07,14,15,58,26.40
2015,07,14,15,59,26.40
2015,07,14,16,00,26.50
2015,07,14,16,01,26.50
2015,07,14,16,02,26.60
2015,07,14,16,03,26.60
2015,07,14,16,04,26.70
2015,07,14,16,05,26.70
2015,07,14,16,06,26.60
2015,07,14,16,07,26.60
2015,07,14,16,08,26.60
2015,07,14,16,09,26.60
2015,07,14,16,10,26.60
2015,07,14,16,11,26.50
2015,07,14,16,12,26.40
2015,07,14,16,13,26.30
2015,07,14,16,14,26.30
2015,07,14,16,15,26.30
2015,07,14,16,16,26.30
2015,07,14,16,17,26.30
2015,07,14,16,18,26.30
2015,07,14,16,19,26.30
2015,07,14,16,20,26.30
2015,07,14,16,21,26.30
2015,07,14,16,22,26.20
2015,07,14,16,23,26.20
2015,07,14,16,24,26.20
2015,07,14,16,25,26.20
2015,07,14,16,26,26.20
2015,07,14,16,27,26.20
2015,07,14,16,28,26.20
2015,07,14,16,29,26.10
2015,07,14,16,30,26.10
2015,07,14,16,31,26.10
2015,07,14,16,32,26.10
2015,07,14,16,33,26.10
2015,07,14,16,34,26.10
2015,07,14,16,35,26.10
2015,07,14,16,36,26.10
2015,07,14,16,37,25.90
2015,07,14,16,38,25.90
2015,07,14,16,39,25.90
2015,07,14,16,40,25.90
2015,07,14,16,41,25.90
2015,07,14,16,42,25.90
2015,07,14,16,43,26.00
2015,07,14,16,44,26.10
2015,07,14,16,45,26.10
2015,07,14,16,46,26.10
2015,07,14,16,47,26.10
2015,07,14,16,48,26.10
2015,07,14,16,49,26.20
2015,07,14,16,50,26.20
2015,07,14,16,51,26.20
2015,07,14,16,53,26.30
2015,07,14,16,54,26.40
2015,07,14,16,55,26.40
2015,07,14,16,56,26.40
2015,07,14,16,57,26.50
2015,07,14,16,58,26.40
2015,07,14,16,59,26.40
2015,07,14,17,00,26.40
2015,07,14,17,01,26.30
2015,07,14,17,02,26.30
2015,07,14,17,03,26.30
2015,07,14,17,04,26.30
2015,07,14,17,05,26.30
2015,07,14,17,06,26.30
2015,07,14,17,07,26.30
2015,07,14,17,08,26.30
2015,07,14,17,09,26.40
2015,07,14,17,10,26.50
2015,07,14,17,11,26.60
2015,07,14,17,12,26.60
2015,07,14,17,13,26.60
2015,07,14,17,14,26.60
2015,07,14,17,15,26.40
2015,07,14,17,16,26.30
2015,07,14,17,17,26.10
2015,07,14,17,18,26.10
2015,07,14,17,19,25.90
2015,07,14,17,20,25.80
2015,07,14,17,21,25.70
2015,07,14,17,22,25.70
2015,07,14,17,23,25.60
2015,07,14,17,24,25.50
2015,07,14,17,25,25.40
2015,07,14,17,26,25.30